TIME,DELAY(SENSOR),PRES,T(CTD),SAL,OXYGEN,RAWTEMP,T(OPTODE),TCPHASE,FLUOR,BETA(BETA700),BETA(BETA412),BETA(BETA440),CDOM,C(CSC),ED(ED411.90),ED(ED443.80),ED(ED489.40),ED(ED554.70),LU(LU412.20),LU(LU443.80),LU(LU489.40),LU(LU555.00),COMP,TILTX,TILTX(TILTY),CHECK
1345648369,5806,494.5100097656250000,17.4979991912841800,36.4709014892578100,234.9611968994140600,171.9824066162109400,17.4931907653808600,30.9605598449707030,50,100,97,80,67,13853,2146950701,2147513938,2147265389,2147466230,2147086409,2146952886,2147658057,2147117302,2523,-3,8,25910
1345648474,5802,484.0000000000000000,17.5083999633789060,36.4721984863281250,235.0173950195312500,171.5903015136718800,17.5050201416015620,30.9525909423828120,50,100,98,80,66,13855,2146956790,2147511917,2147264466,2147461915,2147086601,2146954678,2147656722,2147114971,2934,-3,8,53407
1345648589,5802,472.4100036621094000,17.5391998291015620,36.4781990051269500,235.3377075195312500,170.5980072021484400,17.5349597930908200,30.9236297607421880,50,101,97,80,67,13854,2146954093,2147515474,2147264301,2147464265,2147088118,2146953993,2147658029,2147124836,3288,-2,8,24628
1345648704,5805,460.8699951171875000,17.5771999359130860,36.4855003356933600,235.7368927001953000,169.3701934814453000,17.5720100402832030,30.8880805969238280,50,101,98,79,66,13854,2146953225,2147511716,2147266733,2147465024,2147088923,2146956251,2147652059,2147123739,3139,-3,8,31017
1345648834,5805,449.2000122070312500,17.6189994812011720,36.4925003051757800,235.9485015869140600,167.9019927978515600,17.6163196563720700,30.8579902648925780,51,102,98,79,66,13853,2146955227,2147514596,2147267282,2147463149,2147083931,2146956982,2147655259,2147114358,3445,-3,8,2280
1345648973,5804,439.1700134277344000,17.6532001495361330,36.4984016418457000,236.1454925537109400,166.8912963867187500,17.6468200683593750,30.8347797393798830,50,101,98,81,66,13853,2146950180,2147515190,2147266614,2147463478,2147086720,2146956233,2147652626,2147122395,3492,-3,8,17897
1345649141,5805,425.7300109863281000,17.7527999877929700,36.5089988708496100,233.3668975830078000,163.6277008056640600,17.7453193664550780,30.9256095886230470,50,101,96,79,67,13851,2146955574,2147510921,2147266130,2147465846,2147086811,2146954441,2147649298,2147126774,766,-2,8,8476
1345649256,5804,414.8099975585937500,17.8416004180908200,36.5265998840332000,235.3061065673828000,160.6739959716797000,17.8344898223876950,30.7918205261230470,50,101,97,80,66,13851,2146954761,2147514870,2147264192,2147462272,2147087981,2146959296,2147655542,2147123428,220,-2,8,54708
1345649371,5807,404.0400085449219000,17.9062995910644530,36.5376014709472660,235.9994964599609400,158.4232025146484400,17.9024391174316400,30.7281608581542970,50,102,98,81,66,13849,2146953444,2147515154,2147265572,2147461622,2147088329,2146960155,2147655798,2147123629,605,-3,8,22349
1345649488,5806,393.4599914550781000,17.9755992889404300,36.5479011535644500,235.7429962158203000,156.0848999023437500,17.9730491638183600,30.7094001770019530,50,100,98,81,66,13848,2146955382,2147517220,2147267017,2147461019,2147087506,2146954843,2147651574,2147121289,372,-3,8,45289
1345649615,5806,382.1799926757812500,18.0510005950927730,36.5587997436523440,236.1150054931640600,153.7041015625000000,18.0449504852294920,30.6595706939697270,51,100,98,79,66,13849,2146951716,2147515968,2147267053,2147462692,2147088374,2146958144,2147649764,2147118061,831,-3,8,54893
1345649744,5804,371.0400085449219000,18.0855007171630860,36.5642013549804700,235.9868011474609400,152.5343933105468800,18.0802803039550780,30.6501007080078120,50,101,98,81,66,13849,2146957193,2147516489,2147271826,2147464832,2147086756,2146959844,2147653494,2147123355,1324,-3,8,34013
1345649871,5803,360.2699890136719000,18.1250000000000000,36.5694999694824200,235.7597045898437500,151.1688995361328000,18.1215305328369140,30.6427993774414060,50,102,99,82,66,13849,2146954889,2147517129,2147272219,2147461302,2147084891,2146960109,2147652653,2147125513,1730,-2,8,15490
1345649998,5808,349.7500000000000000,18.1835994720459000,36.5761985778808600,235.4346923828125000,149.1867065429687500,18.1814098358154300,30.6318798065185550,51,104,97,80,66,13844,2146954102,2147516553,2147272576,2147462948,2147080978,2146957769,2147656612,2147125046,1739,-3,8,35407
1345650139,5803,338.3999938964844000,18.2399005889892580,36.5828018188476560,234.8726043701172000,147.4553070068359400,18.2337207794189450,30.6357898712158200,51,101,99,81,66,13847,2146955026,2147514880,2147270052,2147460022,2147085339,2146959177,2147652205,2147122240,1701,-3,8,40759
1345650278,5805,327.2600097656250000,18.3071994781494140,36.5895004272460940,234.1067962646484400,145.2677001953125000,18.2998294830322270,30.6435794830322270,50,101,97,81,66,13846,2146955419,2147520338,2147274989,2147458934,2147085760,2146960502,2147656704,2147125833,2065,-3,8,30240
1345650407,5807,316.8699951171875000,18.3397006988525400,36.5927009582519500,233.2808074951172000,144.0644989013672000,18.3361892700195300,30.6675701141357420,51,102,98,80,66,13842,2146955081,2147517138,2147275044,2147462107,2147080758,2146960649,2147660964,2147122157,1777,-3,8,21654
1345650546,5806,305.8399963378906000,18.5027008056640620,36.6048011779785160,230.9049072265625000,138.7964019775390600,18.4954299926757800,30.7130794525146500,50,102,98,80,67,13840,2146952960,2147518491,2147276726,2147459556,2147076297,2146965019,2147653650,2147123913,1715,-3,8,26650
1345650694,5805,293.5000000000000000,18.5863990783691400,36.6083984375000000,229.1047058105468800,135.9149932861328000,18.5825595855712900,30.7633495330810550,51,103,98,81,67,13841,2146953188,2147519616,2147285650,2147458194,2147075401,2146962176,2147658130,2147123538,3171,-3,8,38498
1345650808,5805,282.1900024414062500,18.6791992187500000,36.6128005981445300,228.2395935058593800,132.7512969970703000,18.6782398223876950,30.7639102935791000,51,102,98,81,67,13841,2146954861,2147524745,2147289892,2147456292,2147079497,2146965376,2147663168,2147123090,2552,-2,8,24416
1345650923,5804,270.5100097656250000,18.8463001251220700,36.6147003173828100,228.2790069580078000,126.5960006713867200,18.8644790649414060,30.6800994873046880,51,101,98,81,66,13844,2146957641,2147528393,2147301101,2147456548,2147075209,2146967570,2147671350,2147125129,3458,-2,8,42794
1345651028,5805,260.1000061035156000,18.9580993652343750,36.5960006713867200,233.7059936523437500,123.0624008178711000,18.9714393615722660,30.3687095642089840,50,102,99,81,65,13847,2146959497,2147531200,2147312877,2147457572,2147083126,2146972443,2147673078,2147123968,3360,-2,8,4416
1345651143,5804,248.5299987792968800,19.0622997283935550,36.5992012023925800,235.8834075927734400,120.1938018798828100,19.0582904815673830,30.2268104553222660,50,102,97,80,66,13844,2146957942,2147554459,2147362468,2147461421,2147082861,2146986541,2147699300,2147125924,165,-3,8,33102
1345651246,5803,238.4299926757812500,19.1277008056640620,36.5863990783691400,240.0856018066406200,118.0985031127929700,19.1217403411865230,30.0015296936035160,51,102,98,81,66,13844,2146959881,2147564891,2147385206,2147457490,2147073645,2147001563,2147715227,2147127442,3551,-2,8,36408
1345651363,5805,227.5099945068359400,19.2017002105712900,36.5810012817382800,245.3784942626953000,115.6321029663086000,19.1964492797851560,29.7266597747802730,50,105,99,80,65,13839,2146963456,2147581074,2147416603,2147455149,2147087744,2147004781,2147733092,2147127405,229,-2,8,29382
1345651490,5805,216.2400054931640600,19.2511005401611330,36.5782012939453100,247.5081024169922000,113.6437988281250000,19.2566890716552730,29.6047592163085940,50,103,97,82,64,13838,2146961325,2147603520,2147463734,2147454409,2147082139,2147021504,2147758875,2147131419,528,-3,8,2233
1345651619,5804,205.3000030517578000,19.2999992370605470,36.5730018615722660,250.2386932373047000,112.3053970336914000,19.2972507476806640,29.4659805297851560,51,102,98,81,65,13845,2146968018,2147638345,2147535680,2147455094,2147093723,2147055387,2147799488,2147132123,391,-3,8,8208
1345651710,5806,197.6900024414062500,19.3341007232666000,36.5699996948242200,251.7162933349609400,111.2304000854492200,19.3298206329345700,29.3870506286621100,51,104,99,81,63,13842,2146976603,2147668864,2147600694,2147455552,2147091968,2147071936,2147837750,2147136347,579,-3,8,37144
1345651765,5805,193.1199951171875000,19.3525009155273440,36.5708007812500000,252.1062011718750000,110.3498001098632800,19.3565101623535160,29.3585491180419920,53,107,98,81,65,13841,2146980699,2147690989,2147643501,2147453906,2147097069,2147094107,2147863661,2147136356,512,-3,8,28601
1345651820,5805,188.6100006103515600,19.3924999237060550,36.5709991455078100,252.3892059326172000,109.3412017822265600,19.3870906829834000,29.3332099914550780,55,108,98,82,63,13833,2146984576,2147715017,2147695542,2147454098,2147100717,2147112100,2147893558,2147139940,227,-3,8,2002
1345651875,5806,184.1100006103515600,19.4181003570556640,36.5741996765136700,251.8872070312500000,108.5076980590820300,19.4123497009277340,29.3445091247558600,57,108,99,81,63,13832,2146990793,2147742134,2147742454,2147452891,2147107465,2147132772,2147920731,2147140900,312,-3,8,9671
1345651950,5805,178.1300048828125000,19.4424991607666000,36.5740013122558600,251.9156036376953000,107.6346969604492200,19.4388198852539060,29.3319606781005860,61,112,98,81,63,13827,2147002249,2147787373,2147832246,2147456228,2147112685,2147160713,2147975378,2147141869,471,-3,8,13610
1345652005,5806,173.9600067138672000,19.4797992706298830,36.5802001953125000,251.5605010986328000,106.2576980590820300,19.4805698394775400,29.3297405242919920,62,111,99,82,64,13828,2147013668,2147834486,2147917549,2147452900,2147115702,2147193974,2148015040,2147144804,493,-3,8,33463
1345652060,5805,169.8000030517578000,19.5216007232666000,36.5839004516601560,250.7151031494140600,104.9228973388671900,19.5210494995117200,29.3496894836425780,65,112,99,82,63,13820,2147024045,2147880228,2147995858,2147455817,2147123072,2147218925,2148055945,2147146477,372,-3,8,57346
1345652115,5807,165.6199951171875000,19.5487003326416000,36.5882987976074200,250.3493957519531200,104.1364974975586000,19.5449008941650400,29.3556404113769530,69,116,98,82,64,13820,2147044571,2147947053,2148120685,2147456100,2147136283,2147266240,2148116845,2147148809,3423,-3,8,56427
1345652170,5805,161.3699951171875000,19.5578002929687500,36.5863990783691400,250.3740997314453000,103.6409988403320300,19.5599193572998050,29.3482303619384770,73,113,99,81,65,13813,2147060736,2147996553,2148198171,2147457133,2147137984,2147296896,2148151862,2147153481,2945,-3,8,54174
1345652225,5807,157.0399932861328000,19.6287994384765620,36.5926017761230500,250.3917999267578000,101.6045989990234400,19.6216907501220700,29.3212394714355470,79,115,99,82,63,13810,2147087378,2148089261,2148342610,2147455899,2147159149,2147339465,2148214326,2147157668,2741,-3,8,28218
1345652303,5807,151.2599945068359400,19.6711006164550780,36.5983009338378900,250.1436004638672000,100.1922988891601600,19.6645393371582030,29.3140602111816400,86,118,99,83,64,13801,2147133668,2148220388,2148549010,2147459529,2147181741,2147408329,2148302710,2147166537,2737,-2,8,45370
1345652370,5804,146.7599945068359400,19.6972999572753900,36.6025009155273440,249.9515075683593800,99.2428207397461000,19.6933498382568360,29.3104305267334000,91,119,100,83,64,13802,2147176246,2148320722,2148688950,2147462189,2147197074,2147455341,2148355072,2147168384,2807,-3,8,23008
1345652425,5803,143.0299987792968800,19.7558994293212900,36.6078987121582000,249.8990936279297000,97.4231033325195300,19.7485809326171880,29.2891101837158200,94,116,99,83,64,13797,2147250633,2148549650,2149066112,2147462966,2147235245,2147582317,2148524900,2147183588,2871,-2,9,26798
1345652480,5806,139.2899932861328000,19.7772998809814450,36.6024017333984400,250.5724945068359400,96.6253967285156200,19.7727909088134770,29.2492809295654300,104,120,99,84,65,13789,2147372909,2148912109,2149659684,2147466468,2147290002,2147765302,2148780534,2147200438,3245,-3,8,21959
1345652535,5810,135.6600036621093800,19.8013000488281250,36.6026992797851560,250.8681945800781200,95.7961273193359400,19.7979602813720700,29.2257804870605470,103,121,101,83,65,13785,2147487259,2149215405,2150115757,2147471378,2147334747,2147895606,2148964077,2147211593,66,-2,8,29120
1345652613,5806,131.3899993896484400,19.8859996795654300,36.6053009033203100,251.6159973144531200,93.0519332885742200,19.8812694549560550,29.1579704284667970,117,124,101,84,65,13777,2147620580,2149524342,2150528100,2147478509,2147390555,2148020818,2149112667,2147225545,208,-3,8,51169
1345652716,5808,128.1499938964843800,19.9745006561279300,36.6138992309570300,251.8928985595703000,90.6285476684570300,19.9548702239990230,29.1148605346679700,122,124,101,84,64,13764,2147810752,2149980032,2151162816,2147486308,2147468333,2148209307,2149344018,2147245174,2717,-2,8,32723
1345652911,5807,124.0699996948242200,20.1504993438720700,36.6315002441406250,251.3318023681640600,84.5185089111328100,20.1405200958251950,29.0612297058105470,128,125,101,84,65,13755,2148431515,2151467949,2153261421,2147506605,2147704484,2148807149,2150126976,2147308608,98,-2,8,16739
1345653038,5804,120.1699981689453100,20.3817005157470700,36.6548995971679700,249.4777984619140600,77.4906768798828100,20.3542194366455080,29.0529403686523440,137,129,103,85,65,13735,2149012763,2152684873,2154716352,2147525906,2147901220,2149190838,2150576713,2147350427,2876,-3,8,41548
1345653165,5803,116.0800018310546900,20.5286998748779300,36.6642990112304700,248.5836944580078000,72.1470565795898400,20.5168399810791000,29.0241508483886720,156,131,104,86,65,13716,2149872758,2154530624,2156919414,2147556160,2148195739,2149794980,2151294381,2147412333,2619,-3,8,58264
1345653267,5804,111.4000015258789000,20.7094001770019530,36.6576004028320300,249.7767028808593800,66.6197204589843800,20.6851596832275400,28.9016609191894530,127,131,104,86,66,13707,2151178953,2157045394,2159681865,2147602678,2148655460,2150692964,2152280155,2147505856,2910,-3,8,65477
1345653346,5804,107.3099975585937500,20.7933998107910160,36.6599006652832000,252.9864959716797000,63.4120216369628900,20.7828998565673830,28.7217292785644530,126,128,104,86,65,13691,2152668891,2159702573,2162299291,2147655341,2149202194,2151720109,2153321298,2147603803,2994,-3,9,31157
1345653425,5805,103.6699981689453100,20.8701000213623050,36.6108016967773440,266.7135925292969000,60.9890289306640600,20.8567600250244140,28.1187400817871100,102,126,104,85,63,13719,2154903616,2163674212,2166476571,2147738880,2150151853,2153504128,2155121408,2147769280,2294,-3,8,48753
1345653530,5804,99.5400009155273400,21.0788002014160160,36.6101989746093750,279.4480895996094000,54.4234390258789060,21.0570201873779300,27.5368995666503900,98,129,104,86,62,13708,2157893942,2168628598,2171359396,2147855378,2151550262,2155941449,2157308864,2147972681,2446,-3,8,17368
1345653585,5805,97.6800003051757800,21.2196006774902340,36.6071014404296900,281.6697082519531000,49.9838218688964840,21.1925392150878900,27.3980598449707030,96,128,104,86,60,13701,2159611209,2171456758,2174175113,2147920219,2152385380,2157372598,2158599552,2148091428,2883,-3,8,40107
1345653640,5805,96.1600036621093800,21.2453994750976560,36.6064987182617200,282.9491882324219000,48.8836097717285160,21.2261390686035160,27.3362998962402340,95,131,103,87,62,13703,2160609133,2172903003,2175427885,2147970697,2152949961,2158246985,2159336054,2148154441,2334,-2,8,52282
1345653719,5805,94.5299987792968800,21.3628005981445300,36.6024017333984400,283.3776855468750000,46.0970191955566400,21.3112602233886720,27.2859992980957030,93,134,106,86,61,13699,2162123483,2175222345,2177609865,2148042322,2153764370,2159563465,2160438747,2148256804,2413,-2,8,61420
1345653868,5805,92.1699981689453100,21.4708995819091800,36.6057014465332000,282.5716857910156000,40.8196907043457000,21.4725704193115230,27.2519092559814450,89,127,105,86,60,13652,2164781348,2178888365,2180616128,2148144155,2155309257,2161809654,2162025819,2148405339,3228,-3,9,19762
1345653947,5806,90.2200012207031200,21.7052001953125000,36.5871009826660160,274.2556152343750000,34.1226005554199200,21.6774597167968750,27.4876194000244140,88,128,103,86,61,13700,2167619273,2182621650,2183473618,2148235712,2156759222,2163952283,2163644544,2148549549,2497,-2,8,20565
1345654050,5805,88.3300018310546900,21.8404998779296880,36.5770988464355500,270.2937927246094000,31.1554603576660160,21.7682991027832030,27.6062908172607420,85,129,105,87,62,13685,2171118153,2187065737,2186866560,2148356480,2158478189,2166376301,2165413942,2148720201,2304,-2,8,63370
1345654164,5809,84.5500030517578100,21.9694004058837900,36.6053009033203100,267.3953857421875000,24.7546005249023440,21.9644298553466800,27.6429100036621100,83,130,104,86,61,13697,2177287451,2194860324,2193343222,2148675611,2161648438,2170662473,2168525961,2149037019,2776,-3,9,38928
1345654219,5805,81.4000015258789000,22.1110000610351560,36.6128997802734400,265.2987976074219000,20.3813705444335940,22.0985507965087900,27.6731605529785160,80,128,104,87,61,13693,2182233481,2200621001,2197864822,2148942244,2164324589,2174196544,2171141449,2149304585,3220,-3,8,43894
1345654274,5804,78.5599975585937500,22.2777996063232420,36.6207008361816400,264.2363891601562500,15.1185903549194340,22.2600803375244140,27.6512393951416000,79,125,103,87,60,13688,2189050779,2208900745,2204645065,2149315913,2167979675,2179150427,2174979401,2149677467,2564,-2,8,64857
1345654329,5803,76.3799972534179700,22.3369007110595700,36.6099014282226560,263.3106079101562500,12.9811000823974610,22.3257293701171880,27.6624298095703120,78,131,105,87,62,13694,2197161188,2218927506,2213020644,2149754011,2172291300,2184885705,2179274560,2150133878,2179,-2,8,33004
1345654384,5804,74.7799987792968800,22.4685001373291000,36.6195983886718750,262.5892028808594000,9.3040819168090820,22.4387207031250000,27.6466407775878900,78,130,105,87,61,13689,2202105984,2224131446,2216709513,2149980772,2174996251,2188094976,2181334217,2150339172,2158,-2,8,64766
1345654453,5809,73.3199996948242200,22.6961994171142580,36.5932006835937500,263.1736145019531000,2.1875469684600830,22.6576194763183600,27.5356407165527340,75,129,104,87,61,13694,2205960448,2227741065,2218930852,2150181586,2177468461,2190743049,2182824173,2150488118,2774,-3,9,12202
1345654580,5806,71.6100006103515600,22.8579006195068360,36.6040992736816400,264.7919921875000000,-2.7547180652618410,22.8097991943359380,27.4099102020263670,73,136,106,86,61,13699,2213904246,2237765988,2227748882,2150706843,2182286802,2197062555,2187568448,2150992512,3212,-2,8,6645
1345654826,5804,68.9100036621093800,23.4351005554199220,36.6927986145019500,264.9117126464844000,-20.5877990722656250,23.3601398468017580,27.1880302429199220,68,133,105,86,59,13699,2228312749,2254568082,2241807277,2151683684,2192693165,2209245805,2195862125,2151818788,3175,-2,8,7473
1345654893,5804,67.0699996948242200,23.6910991668701170,36.7324981689453100,269.6135864257812500,-28.7730808258056640,23.6133995056152340,26.9033107757568360,67,130,106,87,58,13707,2231725366,2257637604,2244147446,2152114496,2198391250,2215234870,2199613979,2152234678,337,-2,8,56893
1345655090,5803,65.1399993896484400,23.9694995880126950,36.7411003112793000,273.6308898925781000,-40.5116691589355500,23.9773502349853500,26.6069602966308600,65,127,106,87,60,13704,2242055762,2269103131,2253545435,2152998025,2211659145,2228893394,2207505344,2152987666,969,-3,8,16082
1345655157,5805,62.7999992370605500,24.1651992797851560,36.6817016601562500,273.0925903320312500,-46.0898399353027340,24.1506195068359380,26.5606594085693360,64,124,105,88,59,13693,2247182016,2274223195,2258289307,2153870592,2219152941,2236360036,2211367661,2153366409,3340,-3,8,56514
1345655212,5807,61.0299987792968750,24.1921005249023440,36.6076011657714840,272.5952148437500000,-47.4174385070800800,24.1918907165527340,26.5637702941894530,64,124,105,86,64,13696,2248081846,2274168420,2258122276,2154340425,2222239817,2239035803,2212762002,2153546944,2701,-3,8,21627
1345655279,5803,59.5099983215332000,24.4440002441406250,36.6132011413574200,271.9930114746094000,-50.0925903320312500,24.2750892639160160,26.5548591613769530,66,122,107,85,60,13703,2247660562,2272772973,2256554514,2154607250,2223360045,2239707236,2213251017,2153646802,2130,-3,8,12608
1345655416,5809,57.3899993896484400,24.7138004302978500,36.6530990600585940,268.5596923828125000,-63.3051109313964840,24.6867504119873050,26.5291404724121100,62,124,103,87,59,13704,2258927972,2286604982,2269478528,2156268690,2237071094,2254723904,2222699812,2154736950,1890,-2,8,11272
1345655579,5808,55.5099983215332000,25.0167007446289060,36.7112007141113300,266.7575073242187500,-72.6123428344726600,24.9774894714355470,26.4880294799804700,61,126,106,87,58,13705,2269054235,2298578971,2281156370,2158041408,2250099638,2268853769,2231578486,2155619913,2696,-2,8,32176
1345655756,5810,52.7000007629394500,25.2164001464843750,36.7215995788574200,265.5234069824219000,-79.0558929443359400,25.1791591644287100,26.4591693878173830,61,125,106,86,59,13695,2277575579,2307579702,2289671561,2160119451,2263681572,2282325184,2239753874,2156667657,2641,-2,8,59210
1345655861,5803,50.9500007629394500,25.4792003631591800,36.6898994445800800,263.2076110839844000,-88.2640762329101600,25.4679107666015620,26.4400997161865230,59,125,104,86,58,13701,2282995291,2313014189,2294558537,2161251108,2276566720,2294707584,2246521078,2157497691,3493,-2,8,17170
1345656158,5804,48.7700004577636700,25.8516998291015620,36.6413002014160160,258.2850952148437500,-100.6268005371093800,25.8566398620605470,26.4884300231933600,59,125,102,85,56,13702,2289337837,2319524617,2301484818,2163723053,2292287753,2308953874,2253913636,2158297435,3355,-3,8,3931
1345656215,5805,46.7500000000000000,25.9144001007080080,36.6030006408691400,257.8457031250000000,-102.7144012451171900,25.9223995208740230,26.4810905456542970,58,123,103,86,58,13702,2300656950,2332572086,2314408054,2166859776,2306013101,2322574829,2261829440,2159374838,3120,-3,8,54123
1345656296,5804,44.8300018310546900,25.9284000396728500,36.5638999938964840,257.2575073242187500,-103.2104034423828100,25.9380302429199220,26.4987602233886720,59,122,107,87,58,13703,2306064457,2339174400,2321880594,2169319332,2316825307,2333711040,2268992886,2160302226,2971,-3,9,59560
1345656698,5806,42.8899993896484400,26.8127002716064450,36.4977989196777340,250.2987976074218800,-129.7248992919922000,26.7766399383544920,26.4654006958007800,58,129,103,87,56,13692,2311394203,2343744740,2326344502,2171952192,2333424795,2348367634,2276157577,2161465216,169,-2,8,20147
1345656923,5805,40.9199981689453100,26.9829998016357420,36.4986991882324200,247.0657958984375000,-136.7153015136718800,26.9987602233886720,26.5163002014160160,57,128,104,86,56,13692,2297869540,2324490139,2306411931,2170193700,2325732077,2337631478,2267710619,2160478592,2792,-3,9,36487
1345657015,5803,38.6199989318847660,27.2233009338378900,36.3088989257812500,244.7088012695312500,-143.9037017822265600,27.2276401519775400,26.5292396545410160,59,127,103,88,56,13689,2308664064,2336224539,2318068745,2174798774,2347616192,2359415241,2281231954,2162650770,3150,-3,9,7517
1345657359,5806,36.7900009155273440,27.2714004516601560,36.2934989929199200,242.0930023193359400,-146.2050018310547000,27.3010196685791000,26.6130790710449220,57,128,104,87,58,13684,2352744420,2389828434,2370783414,2186575533,2398397970,2412948992,2316079140,2167639524,337,-3,8,35659
1345657440,5803,34.8499984741210940,27.3190994262695300,36.2711982727050800,241.6186065673828000,-147.6950073242187500,27.3485507965087900,26.6154899597167970,58,125,104,86,58,13685,2370210880,2410684461,2392958628,2195168640,2422805833,2437024274,2331909467,2170606966,457,-3,9,36986
1345657521,5807,32.9099998474121100,27.5492000579834000,36.2335014343261700,239.8894042968750000,-154.4897003173828000,27.5655803680419920,26.6079406738281250,57,127,104,88,58,13680,2356624274,2391151579,2372273590,2192709632,2418149275,2428806080,2324810688,2170549961,456,-3,8,51214